Weather History for Alexandria, LA

Change the Weather History Date:

Thursday, January 22, 1998

  Actual Average Record
Temperature  
Mean Temperature 50 °F 49 °F  
Max Temperature 57 °F 59 °F 80 °F (1982)
Min Temperature 44 °F 38 °F 15 °F (1985)
Degree Days  
Heating Degree Days 14 16  
Month to date heating degree days 352  
Since 1 July heating degree days 1141  
Moisture  
Dew Point 51 °F    
Average Humidity 98    
Maximum Humidity 100    
Minimum Humidity 93    
Precipitation  
Precipitation 0.00 in 0.18 in 3.65 in (1916)
Month to date precipitation 3.48  
Year to date precipitation 3.48  
Snow  
Snow 0.00 in - 5.00 in (1935)
Month to date snowfall  
Since 1 July snowfall  
Snow Depth -    
Sea Level Pressure  
Sea Level Pressure 29.88 in    
Wind  
Wind Speed 13 mph (NNW)    
Max Wind Speed 23 mph    
Max Gust Speed 34 mph    
Visibility 6 miles    
Events Fog , Rain , Thunderstorm    
T = Trace of Precipitation, MM = Missing Value Source: NWS Daily Summary

Daily Weather History Graph

Daily Weather History Graph

Search for Another Location

Airport:

Trip Planner

Search our weather history database for the weather conditions in past years. The results will help you decide how hot, cold, wet, or windy it might be!

Date:

Astronomy

Jan. 22, 1998 Rise Set
Actual Time 7:07 AM CST 5:36 PM CST
Civil Twilight 6:41 AM CST 6:02 PM CST
Nautical Twilight 6:12 AM CST 6:31 PM CST
Astronomical Twilight 5:43 AM CST 7:00 PM CST
Moon 1:47 AM CST (1/22) 1:00 PM CST (1/22)
Length of Visible Light 11h 20m
Length of Day
10h 28m
Waning Crescent, 32% of the Moon is Illuminated
Jan 22
Waning Crescent
Jan 28
New
Feb 3
First Quarter
Feb 11
Full
Feb 19
Last Quarter

Hourly Weather History & Observations

Time (CST) Temp. Windchill Dew Point Humidity Pressure Visibility Wind Dir Wind Speed Gust Speed Precip Events Conditions
12:47 AM 55.4 °F - 55.4 °F 100% 29.83 in 5.0 mi SE 23.0 mph 34.5 mph N/A Rain , Thunderstorm Thunderstorms and Rain
1:47 AM 55.4 °F - 55.4 °F 100% 29.80 in 10.0 mi ESE 23.0 mph 34.5 mph N/A Rain , Thunderstorm Light Thunderstorms and Rain
2:47 AM 55.4 °F - 55.4 °F 100% 29.80 in 10.0 mi ESE 9.2 mph - N/A Rain , Thunderstorm Light Thunderstorms and Rain
3:47 AM 55.4 °F - 55.4 °F 100% 29.79 in 10.0 mi ESE 5.8 mph - N/A   Mostly Cloudy
4:47 AM 55.4 °F - 55.4 °F 100% 29.81 in 10.0 mi Calm Calm - N/A   Overcast
5:47 AM 53.6 °F - 53.6 °F 100% 29.79 in 10.0 mi ESE 8.1 mph - N/A   Overcast
6:47 AM 53.6 °F - 53.6 °F 100% 29.82 in 10.0 mi West 8.1 mph - N/A   Overcast
7:08 AM 53.6 °F - 53.6 °F 100% 29.82 in 2.0 mi West 8.1 mph - N/A   Overcast
7:47 AM 53.6 °F - 53.6 °F 100% 29.82 in 0.2 mi West 9.2 mph - N/A Fog Fog
8:25 AM 55.4 °F - 55.4 °F 100% 29.84 in 0.5 mi NNW 10.4 mph - N/A Fog Fog
8:50 AM 55.4 °F - 55.4 °F 100% 29.84 in 0.5 mi NNW 8.1 mph - N/A Fog Fog
9:20 AM 55.4 °F - 55.4 °F 100% 29.86 in 0.8 mi NNW 8.1 mph - N/A   Overcast
9:50 AM 55.4 °F - 55.4 °F 100% 29.86 in 1.0 mi NNW 10.4 mph - N/A   Overcast
10:30 AM 57.2 °F - 55.4 °F 94% 29.87 in 3.0 mi North 10.4 mph - N/A   Overcast
10:50 AM 57.2 °F - 55.4 °F 94% 29.85 in 5.0 mi North 11.5 mph - N/A   Overcast
11:30 AM 53.6 °F - 53.6 °F 100% 29.85 in 4.0 mi NNW 13.8 mph - N/A   Overcast
11:50 AM 53.6 °F - 53.6 °F 100% 29.88 in 3.0 mi NNW 16.1 mph - N/A   Overcast
12:50 PM 53.6 °F - 51.8 °F 94% 29.88 in 5.0 mi NNW 13.8 mph - N/A   Overcast
1:50 PM 51.8 °F - 51.8 °F 100% 29.87 in 5.0 mi NNW 13.8 mph - N/A   Overcast
2:50 PM 51.8 °F - 50.0 °F 94% 29.87 in 4.0 mi NNW 11.5 mph - N/A   Overcast
4:50 PM 48.2 °F - 46.4 °F 93% 29.94 in 6.0 mi NNW 13.8 mph - N/A   Overcast
5:50 PM 46.4 °F 41.1 °F 44.6 °F 93% 29.96 in 6.0 mi NNW 11.5 mph - N/A   Overcast
6:50 PM 46.4 °F 41.1 °F 44.6 °F 93% 29.96 in 7.0 mi North 11.5 mph - N/A Rain Light Rain
7:50 PM 44.6 °F 41.4 °F 44.6 °F 100% 29.97 in 7.0 mi North 5.8 mph - N/A Rain Light Rain
8:50 PM 44.6 °F 40.2 °F 44.6 °F 100% 30.02 in 7.0 mi North 8.1 mph - N/A   Overcast
9:50 PM 44.6 °F 39.7 °F 42.8 °F 93% 30.04 in 7.0 mi North 9.2 mph - N/A   Overcast
10:50 PM 44.6 °F 40.7 °F 42.8 °F 93% 30.03 in 7.0 mi North 6.9 mph - N/A   Overcast
11:50 PM 44.6 °F 39.7 °F 42.8 °F 93% 30.03 in 7.0 mi North 9.2 mph - N/A   Overcast